Retour au catalogue

GLOBALSTAR M057

ActifCommunicationsLEO
NORAD 25943·PAYLOAD·🇺🇸 United States

Lancé Oct 18, 1999 depuis Baikonur Cosmodrome

Loading…

Prochains Passages (prochaines 24 heures)

TLE

FraisSource: Space-Track

Époque: Sep 14, 2026, 15:47 UTC

1 25943U 99058A   26257.65766489 -.00000046  00000-0  42739-3 0  9996
2 25943  51.9972 138.3947 0001850 233.8221 126.2457 12.24838661222620

Suivez GLOBALSTAR M057 en temps réel avec AllMySat

Download on the App Store